DW2989 Weather Reports


Display with metric or nautical units.
time (UTC)temp
F
wind
direction
speed
MPH
gust
MPH
rain 1hr
in
rain 24hr
in
rain mn
in
humidity
%
barometer
mb
20260505124530 33 117 12.0 17.0 0.00 0.01 0.00 87 1008.6
20260505123050 33 132 8.0 14.0 0.00 0.01 0.00 87 1008.5
20260505121529 33 119 10.0 14.0 0.00 0.01 0.00 88 1008.5
20260505120029 33 111 12.0 18.0 0.00 0.01 0.00 89 1008.7
20260505114524 33 115 11.0 16.0 0.00 0.01 0.00 91 1008.4
20260505113032 33 118 9.0 13.0 0.00 0.01 0.00 91 1008.5
20260505111536 33 132 8.0 12.0 0.00 0.01 0.00 91 1008.4
20260505101508 35 122 11.0 16.0 0.00 0.01 0.00 84 1008.1
20260505100005 36 126 11.0 19.0 0.00 0.01 0.00 82 1007.9
20260505094502 36 134 11.0 17.0 0.00 0.01 0.00 82 1007.7
20260505093100 36 118 12.0 17.0 0.00 0.01 0.00 82 1007.7
20260505091558 37 97 13.0 18.0 0.00 0.01 0.00 80 1007.7
20260505090058 37 110 11.0 14.0 0.00 0.01 0.00 77 1007.9
20260505084551 38 105 10.0 15.0 0.00 0.01 0.00 76 1008.0
20260505083100 38 101 11.0 16.0 0.00 0.01 0.00 73 1008.0
20260505081551 39 114 10.0 15.0 0.00 0.01 0.00 71 1008.1
20260505080040 40 89 10.0 15.0 0.00 0.01 0.00 69 1008.2
20260505074541 40 115 9.0 13.0 0.00 0.01 0.00 67 1008.0
20260505073033 40 119 8.0 11.0 0.00 0.01 0.00 66 1008.0
20260505071632 40 123 7.0 10.0 0.00 0.01 0.00 66 1008.2
20260505070038 40 135 7.0 11.0 0.00 0.01 0.00 65 1008.3
20260505064549 40 109 8.0 13.0 0.00 0.01 0.00 65 1008.2
20260505063026 40 116 10.0 14.0 0.00 0.01 0.00 65 1008.1
20260505061535 40 109 11.0 16.0 0.00 0.01 0.00 65 1008.1
20260505060026 41 123 11.0 16.0 0.00 0.01 0.00 65 1007.7
20260505054521 42 133 9.0 17.0 0.00 0.01 0.00 62 1007.6
20260505053017 42 147 12.0 18.0 0.00 0.01 0.00 59 1007.5
20260505051513 43 131 8.0 16.0 0.00 0.01 0.00 59 1007.4
20260505041502 44 144 4.0 12.0 0.00 0.01 0.00 58 1007.1
20260505040001 44 150 6.0 15.0 0.00 0.01 0.00 58 1007.1
20260505034604 43 133 11.0 17.0 0.00 0.01 0.00 59 1006.8
20260505033057 43 132 11.0 15.0 0.00 0.01 0.00 60 1006.5
20260505031601 44 128 11.0 20.0 0.00 0.01 0.00 58 1005.7
20260505030045 45 134 13.0 22.0 0.00 0.01 0.00 56 1005.3
20260505024546 47 142 13.0 22.0 0.00 0.01 0.00 56 1004.9
20260505023045 48 130 12.0 22.0 0.00 0.01 0.00 54 1004.8
20260505021542 49 137 16.0 25.0 0.00 0.01 0.00 54 1004.4
20260505020031 51 134 17.0 25.0 0.00 0.01 0.00 52 1003.9
20260505014527 52 139 16.0 24.0 0.00 0.01 0.00 47 1003.6
20260505013023 53 134 14.0 22.0 0.00 0.01 0.00 46 1003.2
20260505011516 53 164 5.0 16.0 0.00 0.01 0.00 46 1002.9
20260505010012 54 162 6.0 15.0 0.00 0.01 0.00 45 1002.7
20260505004539 55 150 6.0 15.0 0.00 0.01 0.00 45 1002.3
20260505003036 56 175 5.0 14.0 0.00 0.01 0.00 46 1002.1
20260505001540 57 153 5.0 15.0 0.00 0.01 0.00 46 1002.0
20260505000039 57 163 7.0 15.0 0.00 0.01 0.00 46 1002.0
20260504234530 57 138 8.0 18.0 0.00 0.01 0.00 45 1002.0
20260504233028 58 142 5.0 13.0 0.00 0.01 0.00 46 1001.9
20260504231603 58 155 5.0 16.0 0.00 0.01 0.00 46 1001.7
20260504230055 59 128 5.0 12.0 0.01 0.01 0.01 45 1001.7
20260504224548 57 128 6.0 19.0 0.01 0.01 0.01 52 1001.7
20260504223048 56 117 13.0 23.0 0.01 0.01 0.01 61 1001.5
20260504221556 59 311 5.0 18.0 0.01 0.01 0.01 53 1002.0
20260504220045 60 107 0.0 8.0 0.00 0.00 0.00 33 1001.6
20260504214544 61 149 2.0 11.0 0.00 0.00 0.00 31 1001.2
20260504213041 63 134 5.0 17.0 0.00 0.00 0.00 30 1001.4
20260504211547 62 154 2.0 8.0 0.00 0.00 0.00 30 1001.7
20260504210112 62 138 3.0 16.0 0.00 0.00 0.00 30 1001.8
20260504204505 63 168 2.0 17.0 0.00 0.00 0.00 30 1002.0
20260504203011 61 144 4.0 17.0 0.00 0.00 0.00 31 1002.3
20260504201532 61 161 6.0 13.0 0.00 0.00 0.00 31 1002.4
20260504200032 61 142 6.0 15.0 0.00 0.00 0.00 32 1002.5
20260504194610 58 147 3.0 12.0 0.00 0.00 0.00 34 1002.8
20260504193058 59 157 3.0 13.0 0.00 0.00 0.00 33 1003.0
20260504191532 59 160 4.0 16.0 0.00 0.00 0.00 33 1003.2
20260504190031 59 141 6.0 13.0 0.00 0.00 0.00 34 1003.3
20260504184533 59 149 5.0 11.0 0.00 0.00 0.00 34 1003.4
20260504183024 58 156 7.0 15.0 0.00 0.00 0.00 36 1003.7
20260504181525 58 174 6.0 15.0 0.00 0.00 0.00 36 1003.9
20260504180023 57 170 6.0 17.0 0.00 0.00 0.00 37 1003.9
20260504174519 57 186 7.0 11.0 0.00 0.00 0.00 36 1003.7
20260504173021 56 161 7.0 14.0 0.00 0.00 0.00 38 1003.8
20260504171517 57 169 7.0 15.0 0.00 0.00 0.00 38 1003.9